| time (UTC) | temp F | wind direction | speed MPH | gust MPH | rain 1hr in | rain 24hr in | rain mn in | humidity % | barometer mb |
| 20260901203824 | 78 | 54 | 0.0 | 0.0 | 0.00 | 0.00 | 0.00 | 82 | 1007.2 |
| 20260901203322 | 78 | 53 | 0.0 | 0.0 | 0.00 | 0.00 | 0.00 | 82 | 1007.0 |
| 20260901202817 | 78 | 25 | 0.0 | 0.0 | 0.00 | 0.00 | 0.00 | 82 | 1007.3 |
| 20260901202312 | 78 | 30 | 0.0 | 1.0 | 0.00 | 0.00 | 0.00 | 81 | 1007.1 |
| 20260901201809 | 78 | 84 | 0.0 | 1.0 | 0.00 | 0.00 | 0.00 | 82 | 1007.0 |
| 20260901201309 | 78 | 181 | 1.0 | 1.0 | 0.00 | 0.00 | 0.00 | 81 | 1007.1 |
| 20260901200809 | 78 | 31 | 0.0 | 0.0 | 0.00 | 0.00 | 0.00 | 81 | 1007.0 |
| 20260901200304 | 78 | 35 | 0.0 | 0.0 | 0.00 | 0.00 | 0.00 | 81 | 1007.2 |
| 20260901195801 | 78 | 32 | 0.0 | 0.0 | 0.00 | 0.00 | 0.00 | 81 | 1007.0 |
| 20260901195255 | 78 | 13 | 1.0 | 1.0 | 0.00 | 0.00 | 0.00 | 80 | 1006.9 |
| 20260901194751 | 78 | 35 | 0.0 | 1.0 | 0.00 | 0.00 | 0.00 | 80 | 1007.1 |
| 20260901194246 | 78 | 32 | 0.0 | 1.0 | 0.00 | 0.00 | 0.00 | 80 | 1007.2 |
| 20260901193743 | 79 | 32 | 0.0 | 0.0 | 0.00 | 0.00 | 0.00 | 80 | 1007.2 |
| 20260901193241 | 79 | 27 | 0.0 | 0.0 | 0.00 | 0.00 | 0.00 | 80 | 1007.3 |
| 20260901192736 | 79 | 36 | 0.0 | 0.0 | 0.00 | 0.00 | 0.00 | 80 | 1007.2 |
| 20260901192231 | 79 | 23 | 0.0 | 1.0 | 0.00 | 0.00 | 0.00 | 80 | 1007.2 |
| 20260901191727 | 79 | 35 | 0.0 | 0.0 | 0.00 | 0.00 | 0.00 | 80 | 1007.4 |
| 20260901191223 | 79 | 33 | 0.0 | 0.0 | 0.00 | 0.00 | 0.00 | 79 | 1007.3 |
| 20260901190719 | 79 | 20 | 0.0 | 1.0 | 0.00 | 0.00 | 0.00 | 79 | 1007.4 |
| 20260901190218 | 80 | 1 | 1.0 | 1.0 | 0.00 | 0.00 | 0.00 | 79 | 1007.3 |
| 20260901185717 | 80 | 29 | 2.0 | 2.0 | 0.00 | 0.00 | 0.00 | 79 | 1007.6 |
| 20260901185215 | 80 | 22 | 1.0 | 1.0 | 0.00 | 0.00 | 0.00 | 78 | 1007.5 |
| 20260901184711 | 80 | 43 | 1.0 | 2.0 | 0.00 | 0.00 | 0.00 | 78 | 1007.4 |
| 20260901184206 | 80 | 0 | 1.0 | 2.0 | 0.00 | 0.00 | 0.00 | 78 | 1007.5 |
| 20260901183701 | 80 | 9 | 1.0 | 2.0 | 0.00 | 0.00 | 0.00 | 78 | 1007.5 |
| 20260901183200 | 80 | 20 | 1.0 | 2.0 | 0.00 | 0.00 | 0.00 | 78 | 1007.2 |
| 20260901182657 | 80 | 13 | 1.0 | 2.0 | 0.00 | 0.00 | 0.00 | 77 | 1007.3 |
| 20260901182156 | 80 | 52 | 0.0 | 1.0 | 0.00 | 0.00 | 0.00 | 77 | 1007.4 |
| 20260901181651 | 80 | 40 | 1.0 | 2.0 | 0.00 | 0.00 | 0.00 | 77 | 1007.2 |
| 20260901181145 | 80 | 32 | 1.0 | 2.0 | 0.00 | 0.00 | 0.00 | 77 | 1007.5 |
| 20260901180639 | 80 | 9 | 1.0 | 2.0 | 0.00 | 0.00 | 0.00 | 77 | 1007.2 |
| 20260901180133 | 81 | 34 | 2.0 | 2.0 | 0.00 | 0.00 | 0.00 | 77 | 1007.3 |
| 20260901175632 | 81 | 13 | 1.0 | 2.0 | 0.00 | 0.00 | 0.00 | 77 | 1007.3 |
| 20260901175122 | 81 | 47 | 2.0 | 3.0 | 0.00 | 0.00 | 0.00 | 76 | 1007.3 |
| 20260901174618 | 81 | 354 | 2.0 | 2.0 | 0.00 | 0.00 | 0.00 | 76 | 1007.1 |
| 20260901174113 | 81 | 43 | 2.0 | 2.0 | 0.00 | 0.00 | 0.00 | 76 | 1007.0 |
| 20260901173613 | 81 | 18 | 1.0 | 3.0 | 0.00 | 0.00 | 0.00 | 75 | 1007.0 |
| 20260901173109 | 81 | 2 | 2.0 | 2.0 | 0.00 | 0.00 | 0.00 | 75 | 1007.1 |
| 20260901172604 | 81 | 11 | 2.0 | 3.0 | 0.00 | 0.00 | 0.00 | 75 | 1006.8 |
| 20260901172103 | 81 | 56 | 2.0 | 5.0 | 0.00 | 0.00 | 0.00 | 75 | 1006.7 |
| 20260901171602 | 81 | 345 | 3.0 | 7.0 | 0.00 | 0.00 | 0.00 | 75 | 1006.8 |
| 20260901171101 | 82 | 42 | 3.0 | 5.0 | 0.00 | 0.00 | 0.00 | 74 | 1006.7 |
| 20260901170555 | 82 | 29 | 3.0 | 5.0 | 0.00 | 0.00 | 0.00 | 74 | 1006.6 |
| 20260901170050 | 82 | 67 | 3.0 | 6.0 | 0.00 | 0.00 | 0.00 | 74 | 1006.6 |
| 20260901165549 | 82 | 338 | 5.0 | 5.0 | 0.00 | 0.00 | 0.00 | 74 | 1006.8 |
| 20260901165045 | 82 | 27 | 4.0 | 8.0 | 0.00 | 0.00 | 0.00 | 73 | 1006.5 |
| 20260901164540 | 82 | 338 | 3.0 | 6.0 | 0.00 | 0.00 | 0.00 | 73 | 1006.6 |
| 20260901164036 | 82 | 36 | 3.0 | 6.0 | 0.00 | 0.00 | 0.00 | 73 | 1006.4 |
| 20260901163531 | 82 | 69 | 4.0 | 8.0 | 0.00 | 0.00 | 0.00 | 73 | 1006.4 |
| 20260901163030 | 82 | 334 | 5.0 | 7.0 | 0.00 | 0.00 | 0.00 | 72 | 1006.4 |
| 20260901162526 | 82 | 338 | 6.0 | 8.0 | 0.00 | 0.00 | 0.00 | 72 | 1006.2 |
| 20260901162025 | 83 | 332 | 6.0 | 9.0 | 0.00 | 0.00 | 0.00 | 71 | 1006.3 |
| 20260901161524 | 83 | 17 | 3.0 | 7.0 | 0.00 | 0.00 | 0.00 | 70 | 1006.3 |
| 20260901161024 | 83 | 350 | 7.0 | 9.0 | 0.00 | 0.00 | 0.00 | 69 | 1006.2 |
| 20260901160520 | 83 | 343 | 4.0 | 7.0 | 0.00 | 0.00 | 0.00 | 69 | 1006.3 |
| 20260901160015 | 83 | 2 | 2.0 | 7.0 | 0.00 | 0.00 | 0.00 | 69 | 1006.1 |
| 20260901155513 | 84 | 329 | 9.0 | 13.0 | 0.00 | 0.00 | 0.00 | 68 | 1006.1 |
| 20260901155010 | 84 | 305 | 8.0 | 9.0 | 0.00 | 0.00 | 0.00 | 68 | 1006.2 |
| 20260901154510 | 84 | 346 | 8.0 | 9.0 | 0.00 | 0.00 | 0.00 | 67 | 1006.2 |
| 20260901154009 | 85 | 348 | 5.0 | 8.0 | 0.00 | 0.00 | 0.00 | 66 | 1006.2 |
| 20260901153505 | 85 | 325 | 7.0 | 9.0 | 0.00 | 0.00 | 0.00 | 65 | 1006.2 |
| 20260901153004 | 85 | 323 | 5.0 | 8.0 | 0.00 | 0.00 | 0.00 | 65 | 1006.3 |
| 20260901152459 | 85 | 345 | 5.0 | 9.0 | 0.00 | 0.00 | 0.00 | 64 | 1006.2 |
| 20260901151958 | 86 | 36 | 4.0 | 6.0 | 0.00 | 0.00 | 0.00 | 63 | 1006.2 |
| 20260901151454 | 86 | 337 | 7.0 | 9.0 | 0.00 | 0.00 | 0.00 | 62 | 1006.1 |
| 20260901150953 | 86 | 24 | 2.0 | 9.0 | 0.00 | 0.00 | 0.00 | 62 | 1006.4 |
| 20260901150451 | 86 | 344 | 4.0 | 7.0 | 0.00 | 0.00 | 0.00 | 62 | 1006.4 |
| 20260901145949 | 86 | 344 | 4.0 | 6.0 | 0.00 | 0.00 | 0.00 | 62 | 1006.2 |
| 20260901145443 | 86 | 350 | 7.0 | 10.0 | 0.00 | 0.00 | 0.00 | 62 | 1006.3 |
| 20260901144938 | 86 | 331 | 10.0 | 13.0 | 0.00 | 0.00 | 0.00 | 63 | 1006.1 |
| 20260901144433 | 86 | 29 | 7.0 | 11.0 | 0.00 | 0.00 | 0.00 | 63 | 1006.3 |
| 20260901143928 | 86 | 7 | 5.0 | 9.0 | 0.00 | 0.00 | 0.00 | 64 | 1006.3 |
| 20260901143424 | 86 | 339 | 8.0 | 9.0 | 0.00 | 0.00 | 0.00 | 63 | 1006.3 |
| 20260901142920 | 86 | 8 | 11.0 | 14.0 | 0.00 | 0.00 | 0.00 | 63 | 1006.1 |
| 20260901142420 | 86 | 22 | 5.0 | 11.0 | 0.00 | 0.00 | 0.00 | 64 | 1006.1 |
| 20260901141915 | 86 | 345 | 10.0 | 11.0 | 0.00 | 0.00 | 0.00 | 63 | 1005.8 |
| 20260901141409 | 86 | 342 | 6.0 | 13.0 | 0.00 | 0.00 | 0.00 | 62 | 1006.0 |
| 20260901140909 | 87 | 348 | 8.0 | 11.0 | 0.00 | 0.00 | 0.00 | 62 | 1006.0 |
| 20260901140407 | 86 | 276 | 6.0 | 8.0 | 0.00 | 0.00 | 0.00 | 62 | 1005.9 |
| 20260901135902 | 86 | 352 | 12.0 | 16.0 | 0.00 | 0.00 | 0.00 | 62 | 1006.1 |
| 20260901135357 | 87 | 328 | 9.0 | 11.0 | 0.00 | 0.00 | 0.00 | 61 | 1005.9 |
| 20260901134853 | 87 | 355 | 5.0 | 14.0 | 0.00 | 0.00 | 0.00 | 60 | 1006.1 |
| 20260901134348 | 87 | 304 | 5.0 | 10.0 | 0.00 | 0.00 | 0.00 | 61 | 1005.8 |
| 20260901133842 | 87 | 328 | 11.0 | 16.0 | 0.00 | 0.00 | 0.00 | 61 | 1006.0 |
| 20260901133341 | 87 | 73 | 4.0 | 10.0 | 0.00 | 0.00 | 0.00 | 60 | 1006.0 |
| 20260901132840 | 87 | 338 | 9.0 | 11.0 | 0.00 | 0.00 | 0.00 | 60 | 1005.9 |
| 20260901132335 | 87 | 338 | 9.0 | 14.0 | 0.00 | 0.00 | 0.00 | 59 | 1006.1 |
| 20260901131830 | 87 | 327 | 9.0 | 16.0 | 0.00 | 0.00 | 0.00 | 61 | 1006.2 |
| 20260901131329 | 88 | 339 | 9.0 | 15.0 | 0.00 | 0.00 | 0.00 | 59 | 1006.0 |
| 20260901130824 | 88 | 269 | 6.0 | 8.0 | 0.00 | 0.00 | 0.00 | 58 | 1006.0 |
| 20260901130319 | 89 | 284 | 11.0 | 16.0 | 0.00 | 0.00 | 0.00 | 58 | 1006.1 |
| 20260901125816 | 88 | 25 | 7.0 | 11.0 | 0.00 | 0.00 | 0.00 | 58 | 1006.0 |
| 20260901125311 | 87 | 358 | 6.0 | 9.0 | 0.00 | 0.00 | 0.00 | 58 | 1006.1 |
| 20260901124806 | 87 | 311 | 10.0 | 15.0 | 0.00 | 0.00 | 0.00 | 58 | 1006.3 |
| 20260901124301 | 87 | 238 | 11.0 | 14.0 | 0.00 | 0.00 | 0.00 | 58 | 1006.1 |
| 20260901123800 | 88 | 308 | 9.0 | 14.0 | 0.00 | 0.00 | 0.00 | 58 | 1006.1 |
| 20260901123255 | 88 | 84 | 6.0 | 14.0 | 0.00 | 0.00 | 0.00 | 57 | 1006.2 |
| 20260901122754 | 88 | 350 | 10.0 | 13.0 | 0.00 | 0.00 | 0.00 | 58 | 1006.1 |
| 20260901122248 | 88 | 13 | 9.0 | 15.0 | 0.00 | 0.00 | 0.00 | 57 | 1006.1 |
| 20260901121743 | 87 | 7 | 4.0 | 14.0 | 0.00 | 0.00 | 0.00 | 59 | 1006.4 |
| 20260901121238 | 89 | 22 | 14.0 | 16.0 | 0.00 | 0.00 | 0.00 | 57 | 1006.1 |
| 20260901120737 | 89 | 5 | 6.0 | 11.0 | 0.00 | 0.00 | 0.00 | 57 | 1006.1 |
| 20260901120232 | 88 | 357 | 7.0 | 13.0 | 0.00 | 0.00 | 0.00 | 58 | 1006.1 |
| 20260901115728 | 88 | 271 | 8.0 | 10.0 | 0.00 | 0.00 | 0.00 | 59 | 1006.0 |
| 20260901115224 | 88 | 337 | 9.0 | 16.0 | 0.00 | 0.00 | 0.00 | 59 | 1006.0 |
| 20260901114720 | 88 | 350 | 11.0 | 14.0 | 0.00 | 0.00 | 0.00 | 58 | 1006.0 |
| 20260901114214 | 88 | 329 | 11.0 | 14.0 | 0.00 | 0.00 | 0.00 | 59 | 1006.0 |
| 20260901113708 | 89 | 64 | 6.0 | 13.0 | 0.00 | 0.00 | 0.00 | 58 | 1006.1 |
| 20260901113203 | 89 | 336 | 9.0 | 11.0 | 0.00 | 0.00 | 0.00 | 59 | 1006.0 |
| 20260901112702 | 89 | 332 | 13.0 | 16.0 | 0.00 | 0.00 | 0.00 | 59 | 1006.0 |
| 20260901112157 | 88 | 6 | 7.0 | 10.0 | 0.00 | 0.00 | 0.00 | 61 | 1006.0 |
| 20260901111656 | 88 | 264 | 10.0 | 13.0 | 0.00 | 0.00 | 0.00 | 60 | 1005.9 |
| 20260901111155 | 88 | 4 | 10.0 | 11.0 | 0.00 | 0.00 | 0.00 | 61 | 1006.0 |
| 20260901110650 | 88 | 337 | 7.0 | 10.0 | 0.00 | 0.00 | 0.00 | 60 | 1005.9 |
| 20260901110146 | 89 | 40 | 7.0 | 9.0 | 0.00 | 0.00 | 0.00 | 59 | 1006.1 |
| 20260901105643 | 89 | 41 | 6.0 | 10.0 | 0.00 | 0.00 | 0.00 | 58 | 1006.3 |
| 20260901105142 | 89 | 300 | 7.0 | 13.0 | 0.00 | 0.00 | 0.00 | 58 | 1006.0 |
| 20260901104638 | 89 | 273 | 11.0 | 15.0 | 0.00 | 0.00 | 0.00 | 58 | 1006.2 |
| 20260901104133 | 89 | 297 | 7.0 | 14.0 | 0.00 | 0.00 | 0.00 | 58 | 1006.1 |
| 20260901103632 | 89 | 359 | 9.0 | 14.0 | 0.00 | 0.00 | 0.00 | 57 | 1006.1 |
| 20260901103128 | 88 | 11 | 6.0 | 8.0 | 0.00 | 0.00 | 0.00 | 60 | 1006.1 |
| 20260901102628 | 88 | 337 | 14.0 | 18.0 | 0.00 | 0.00 | 0.00 | 59 | 1006.3 |
| 20260901102122 | 88 | 280 | 8.0 | 17.0 | 0.00 | 0.00 | 0.00 | 60 | 1006.2 |
| 20260901101619 | 89 | 6 | 1.0 | 3.0 | 0.00 | 0.00 | 0.00 | 56 | 1006.2 |
| 20260901101117 | 89 | 335 | 2.0 | 9.0 | 0.00 | 0.00 | 0.00 | 57 | 1006.2 |
| 20260901100612 | 89 | 335 | 5.0 | 13.0 | 0.00 | 0.00 | 0.00 | 57 | 1006.2 |
| 20260901100107 | 89 | 277 | 5.0 | 10.0 | 0.00 | 0.00 | 0.00 | 57 | 1006.2 |
| 20260901095605 | 90 | 4 | 4.0 | 14.0 | 0.00 | 0.00 | 0.00 | 56 | 1006.4 |
| 20260901095102 | 89 | 275 | 8.0 | 11.0 | 0.00 | 0.00 | 0.00 | 56 | 1006.5 |
| 20260901094558 | 89 | 17 | 11.0 | 15.0 | 0.00 | 0.00 | 0.00 | 56 | 1006.3 |
| 20260901094057 | 90 | 330 | 9.0 | 15.0 | 0.00 | 0.00 | 0.00 | 54 | 1006.4 |
| 20260901093552 | 91 | 172 | 4.0 | 5.0 | 0.00 | 0.00 | 0.00 | 49 | 1006.3 |
| 20260901093046 | 89 | 173 | 1.0 | 2.0 | 0.00 | 0.00 | 0.00 | 49 | 1006.3 |
| 20260901092542 | 89 | 7 | 1.0 | 7.0 | 0.00 | 0.00 | 0.00 | 51 | 1006.4 |
| 20260901092038 | 89 | 336 | 5.0 | 9.0 | 0.00 | 0.00 | 0.00 | 51 | 1006.4 |
| 20260901091533 | 90 | 336 | 10.0 | 15.0 | 0.00 | 0.00 | 0.00 | 50 | 1006.4 |
| 20260901091028 | 89 | 212 | 2.0 | 3.0 | 0.00 | 0.00 | 0.00 | 49 | 1006.5 |
| 20260901090527 | 88 | 40 | 2.0 | 8.0 | 0.00 | 0.00 | 0.00 | 51 | 1006.7 |
| 20260901090023 | 90 | 348 | 9.0 | 13.0 | 0.00 | 0.00 | 0.00 | 50 | 1006.9 |
| 20260901085518 | 90 | 139 | 2.0 | 2.0 | 0.00 | 0.00 | 0.00 | 47 | 1006.6 |
| 20260901085015 | 89 | 102 | 2.0 | 3.0 | 0.00 | 0.00 | 0.00 | 48 | 1006.7 |
| 20260901084510 | 87 | 272 | 3.0 | 5.0 | 0.00 | 0.00 | 0.00 | 51 | 1007.0 |
| 20260901084006 | 87 | 14 | 8.0 | 10.0 | 0.00 | 0.00 | 0.00 | 52 | 1006.7 |
| 20260901083501 | 87 | 37 | 6.0 | 8.0 | 0.00 | 0.00 | 0.00 | 54 | 1006.8 |
| 20260901082959 | 87 | 271 | 6.0 | 10.0 | 0.00 | 0.00 | 0.00 | 54 | 1006.9 |
| 20260901082454 | 86 | 15 | 1.0 | 5.0 | 0.00 | 0.00 | 0.00 | 56 | 1006.7 |
| 20260901081949 | 87 | 40 | 4.0 | 7.0 | 0.00 | 0.00 | 0.00 | 56 | 1006.9 |
| 20260901081444 | 86 | 348 | 6.0 | 9.0 | 0.00 | 0.00 | 0.00 | 56 | 1006.6 |
| 20260901080938 | 86 | 339 | 4.0 | 8.0 | 0.00 | 0.00 | 0.00 | 58 | 1006.9 |
| 20260901080433 | 87 | 344 | 4.0 | 8.0 | 0.00 | 0.00 | 0.00 | 58 | 1007.0 |
| 20260901075932 | 86 | 276 | 0.0 | 1.0 | 0.00 | 0.00 | 0.00 | 60 | 1007.0 |
| 20260901075427 | 85 | 354 | 3.0 | 9.0 | 0.00 | 0.00 | 0.00 | 60 | 1007.0 |
| 20260901074922 | 85 | 339 | 7.0 | 9.0 | 0.00 | 0.00 | 0.00 | 61 | 1007.1 |
| 20260901074416 | 85 | 298 | 3.0 | 8.0 | 0.00 | 0.00 | 0.00 | 61 | 1007.1 |
| 20260901073912 | 85 | 300 | 6.0 | 8.0 | 0.00 | 0.00 | 0.00 | 61 | 1007.1 |
| 20260901073408 | 85 | 287 | 5.0 | 7.0 | 0.00 | 0.00 | 0.00 | 61 | 1007.1 |
| 20260901072903 | 84 | 52 | 2.0 | 8.0 | 0.00 | 0.00 | 0.00 | 63 | 1007.2 |
| 20260901072403 | 84 | 347 | 6.0 | 7.0 | 0.00 | 0.00 | 0.00 | 64 | 1007.0 |
| 20260901071858 | 83 | 278 | 5.0 | 7.0 | 0.00 | 0.00 | 0.00 | 66 | 1007.3 |
| 20260901071357 | 83 | 302 | 4.0 | 6.0 | 0.00 | 0.00 | 0.00 | 65 | 1007.0 |
| 20260901070856 | 83 | 310 | 6.0 | 8.0 | 0.00 | 0.00 | 0.00 | 65 | 1007.2 |
| 20260901070352 | 83 | 359 | 3.0 | 6.0 | 0.00 | 0.00 | 0.00 | 66 | 1007.3 |
| 20260901065850 | 83 | 293 | 7.0 | 9.0 | 0.00 | 0.00 | 0.00 | 67 | 1007.2 |
| 20260901065346 | 82 | 341 | 6.0 | 8.0 | 0.00 | 0.00 | 0.00 | 67 | 1007.1 |
| 20260901064841 | 83 | 339 | 7.0 | 9.0 | 0.00 | 0.00 | 0.00 | 68 | 1007.2 |
| 20260901064338 | 82 | 352 | 4.0 | 5.0 | 0.00 | 0.00 | 0.00 | 68 | 1007.2 |
| 20260901063835 | 82 | 321 | 3.0 | 6.0 | 0.00 | 0.00 | 0.00 | 69 | 1007.1 |
| 20260901063331 | 82 | 346 | 4.0 | 7.0 | 0.00 | 0.00 | 0.00 | 69 | 1007.1 |
| 20260901062826 | 83 | 50 | 3.0 | 3.0 | 0.00 | 0.00 | 0.00 | 69 | 1007.1 |
| 20260901062322 | 82 | 117 | 1.0 | 5.0 | 0.00 | 0.00 | 0.00 | 70 | 1007.0 |
| 20260901061818 | 82 | 117 | 4.0 | 6.0 | 0.00 | 0.00 | 0.00 | 70 | 1007.3 |
| 20260901061313 | 82 | 122 | 4.0 | 5.0 | 0.00 | 0.00 | 0.00 | 69 | 1007.1 |
| 20260901060808 | 83 | 128 | 0.0 | 1.0 | 0.00 | 0.00 | 0.00 | 70 | 1007.2 |
| 20260901060304 | 82 | 109 | 1.0 | 5.0 | 0.00 | 0.00 | 0.00 | 71 | 1007.1 |
| 20260901055758 | 82 | 50 | 2.0 | 3.0 | 0.00 | 0.00 | 0.00 | 72 | 1007.3 |
| 20260901055255 | 81 | 41 | 3.0 | 5.0 | 0.00 | 0.00 | 0.00 | 73 | 1007.2 |
| 20260901054751 | 82 | 148 | 1.0 | 2.0 | 0.00 | 0.00 | 0.00 | 73 | 1007.2 |
| 20260901054248 | 81 | 41 | 1.0 | 2.0 | 0.00 | 0.00 | 0.00 | 74 | 1006.9 |
| 20260901053743 | 81 | 45 | 0.0 | 1.0 | 0.00 | 0.00 | 0.00 | 74 | 1007.1 |
| 20260901053238 | 80 | 45 | 1.0 | 2.0 | 0.00 | 0.00 | 0.00 | 75 | 1007.1 |
| 20260901052734 | 80 | 56 | 1.0 | 3.0 | 0.00 | 0.00 | 0.00 | 76 | 1007.1 |
| 20260901052229 | 80 | 49 | 2.0 | 3.0 | 0.00 | 0.00 | 0.00 | 76 | 1007.2 |
| 20260901051728 | 79 | 23 | 3.0 | 5.0 | 0.00 | 0.00 | 0.00 | 77 | 1006.9 |
| 20260901051223 | 79 | 32 | 1.0 | 1.0 | 0.00 | 0.00 | 0.00 | 77 | 1007.0 |
| 20260901050718 | 78 | 80 | 1.0 | 2.0 | 0.00 | 0.00 | 0.00 | 79 | 1006.8 |
| 20260901050213 | 77 | 71 | 0.0 | 1.0 | 0.00 | 0.00 | 0.00 | 80 | 1007.1 |
| 20260901045708 | 77 | 66 | 2.0 | 5.0 | 0.00 | 0.00 | 0.00 | 81 | 1006.8 |
| 20260901045203 | 76 | 60 | 0.0 | 1.0 | 0.00 | 0.00 | 0.00 | 83 | 1006.8 |
| 20260901044658 | 75 | 51 | 0.0 | 1.0 | 0.00 | 0.00 | 0.00 | 83 | 1007.0 |
| 20260901044154 | 75 | 46 | 0.0 | 1.0 | 0.00 | 0.00 | 0.00 | 84 | 1006.9 |
| 20260901043650 | 74 | 39 | 0.0 | 1.0 | 0.00 | 0.00 | 0.00 | 85 | 1006.9 |
| 20260901043145 | 74 | 24 | 0.0 | 0.0 | 0.00 | 0.00 | 0.00 | 85 | 1006.7 |
| 20260901042644 | 73 | 20 | 0.0 | 1.0 | 0.00 | 0.00 | 0.00 | 85 | 1006.9 |
| 20260901042139 | 73 | 26 | 0.0 | 1.0 | 0.00 | 0.00 | 0.00 | 85 | 1006.7 |
| 20260901041635 | 73 | 73 | 0.0 | 1.0 | 0.00 | 0.00 | 0.00 | 85 | 1006.8 |
| 20260901041131 | 73 | 89 | 0.0 | 1.0 | 0.00 | 0.00 | 0.00 | 85 | 1006.5 |
| 20260901040630 | 73 | 97 | 0.0 | 0.0 | 0.00 | 0.00 | 0.00 | 86 | 1006.6 |
| 20260901040130 | 73 | 343 | 0.0 | 0.0 | 0.00 | 0.00 | 0.00 | 86 | 1006.7 |
| 20260901035628 | 72 | 21 | 0.0 | 0.0 | 0.00 | 0.00 | 0.00 | 86 | 1006.6 |
| 20260901035126 | 72 | 9 | 0.0 | 0.0 | 0.00 | 0.00 | 0.00 | 86 | 1006.6 |
| 20260901034621 | 72 | 359 | 0.0 | 0.0 | 0.00 | 0.00 | 0.00 | 86 | 1006.6 |
| 20260901034115 | 72 | 357 | 0.0 | 0.0 | 0.00 | 0.00 | 0.00 | 86 | 1006.5 |
| 20260901033615 | 72 | 36 | 0.0 | 0.0 | 0.00 | 0.00 | 0.00 | 86 | 1006.5 |
| 20260901033114 | 72 | 9 | 0.0 | 0.0 | 0.00 | 0.00 | 0.00 | 86 | 1006.5 |
| 20260901032613 | 72 | 9 | 0.0 | 0.0 | 0.00 | 0.00 | 0.00 | 85 | 1006.5 |
| 20260901032108 | 72 | 25 | 0.0 | 0.0 | 0.00 | 0.00 | 0.00 | 85 | 1006.4 |
| 20260901031604 | 72 | 31 | 0.0 | 0.0 | 0.00 | 0.00 | 0.00 | 85 | 1006.4 |
| 20260901031100 | 72 | 38 | 0.0 | 0.0 | 0.00 | 0.00 | 0.00 | 85 | 1006.3 |
| 20260901030559 | 72 | 33 | 0.0 | 1.0 | 0.00 | 0.00 | 0.00 | 85 | 1006.2 |
| 20260901030054 | 72 | 7 | 1.0 | 2.0 | 0.00 | 0.00 | 0.00 | 85 | 1006.5 |
| 20260901025548 | 72 | 38 | 0.0 | 0.0 | 0.00 | 0.00 | 0.00 | 85 | 1006.2 |
| 20260901025043 | 73 | 350 | 1.0 | 1.0 | 0.00 | 0.00 | 0.00 | 85 | 1006.2 |
| 20260901024538 | 73 | 25 | 0.0 | 1.0 | 0.00 | 0.00 | 0.00 | 85 | 1006.0 |
| 20260901024037 | 73 | 30 | 0.0 | 0.0 | 0.00 | 0.00 | 0.00 | 85 | 1006.3 |
| 20260901023536 | 73 | 38 | 0.0 | 1.0 | 0.00 | 0.00 | 0.00 | 85 | 1006.1 |
| 20260901023031 | 73 | 39 | 0.0 | 0.0 | 0.00 | 0.00 | 0.00 | 85 | 1006.4 |
| 20260901022526 | 73 | 39 | 0.0 | 0.0 | 0.00 | 0.00 | 0.00 | 84 | 1006.3 |
| 20260901022021 | 73 | 125 | 1.0 | 2.0 | 0.00 | 0.00 | 0.00 | 84 | 1006.3 |
| 20260901021517 | 73 | 72 | 1.0 | 1.0 | 0.00 | 0.00 | 0.00 | 84 | 1006.3 |
| 20260901021012 | 73 | 38 | 0.0 | 1.0 | 0.00 | 0.00 | 0.00 | 84 | 1006.2 |
| 20260901020507 | 73 | 38 | 1.0 | 1.0 | 0.00 | 0.00 | 0.00 | 84 | 1006.0 |
| 20260901020008 | 73 | 44 | 0.0 | 0.0 | 0.00 | 0.00 | 0.00 | 84 | 1006.0 |
| 20260901015503 | 73 | 352 | 1.0 | 1.0 | 0.00 | 0.00 | 0.00 | 84 | 1006.1 |
| 20260901015002 | 73 | 23 | 1.0 | 1.0 | 0.00 | 0.00 | 0.00 | 84 | 1006.2 |
| 20260901014458 | 73 | 50 | 0.0 | 1.0 | 0.00 | 0.00 | 0.00 | 84 | 1006.2 |
| 20260901013954 | 73 | 137 | 2.0 | 2.0 | 0.00 | 0.00 | 0.00 | 84 | 1006.3 |
| 20260901013450 | 73 | 40 | 2.0 | 2.0 | 0.00 | 0.00 | 0.00 | 83 | 1006.1 |
| 20260901012945 | 74 | 33 | 0.0 | 0.0 | 0.00 | 0.00 | 0.00 | 83 | 1006.0 |
| 20260901012445 | 73 | 39 | 0.0 | 0.0 | 0.00 | 0.00 | 0.00 | 83 | 1006.1 |
| 20260901011940 | 73 | 28 | 0.0 | 0.0 | 0.00 | 0.00 | 0.00 | 83 | 1006.0 |
| 20260901011436 | 74 | 37 | 0.0 | 0.0 | 0.00 | 0.00 | 0.00 | 83 | 1006.1 |
| 20260901010934 | 74 | 4 | 0.0 | 1.0 | 0.00 | 0.00 | 0.00 | 83 | 1006.2 |
| 20260901010429 | 74 | 68 | 1.0 | 2.0 | 0.00 | 0.00 | 0.00 | 83 | 1006.1 |
| 20260901005929 | 74 | 356 | 0.0 | 2.0 | 0.00 | 0.00 | 0.00 | 83 | 1006.2 |
| 20260901005424 | 74 | 30 | 1.0 | 1.0 | 0.00 | 0.00 | 0.00 | 83 | 1005.9 |
| 20260901004919 | 74 | 100 | 0.0 | 1.0 | 0.00 | 0.00 | 0.00 | 82 | 1006.1 |
| 20260901004418 | 74 | 16 | 0.0 | 1.0 | 0.00 | 0.00 | 0.00 | 82 | 1006.1 |
| 20260901003913 | 74 | 37 | 1.0 | 2.0 | 0.00 | 0.00 | 0.00 | 82 | 1006.3 |
| 20260901003408 | 74 | 72 | 0.0 | 1.0 | 0.00 | 0.00 | 0.00 | 82 | 1006.3 |
| 20260901002907 | 74 | 57 | 0.0 | 1.0 | 0.00 | 0.00 | 0.00 | 82 | 1006.1 |
| 20260901002406 | 74 | 49 | 0.0 | 2.0 | 0.00 | 0.00 | 0.00 | 82 | 1006.4 |
| 20260901001901 | 74 | 78 | 1.0 | 2.0 | 0.00 | 0.00 | 0.00 | 81 | 1006.2 |
| 20260901001357 | 74 | 166 | 0.0 | 2.0 | 0.00 | 0.00 | 0.00 | 81 | 1006.1 |
| 20260901000852 | 74 | 50 | 0.0 | 1.0 | 0.00 | 0.00 | 0.00 | 81 | 1006.2 |
| 20260901000347 | 75 | 71 | 1.0 | 2.0 | 0.00 | 0.00 | 0.00 | 81 | 1006.2 |
| 20260831235845 | 75 | 75 | 0.0 | 0.0 | 0.00 | 0.00 | 0.00 | 81 | 1006.0 |
| 20260831235342 | 75 | 136 | 1.0 | 2.0 | 0.00 | 0.00 | 0.00 | 81 | 1006.0 |
| 20260831234836 | 75 | 76 | 0.0 | 1.0 | 0.00 | 0.00 | 0.00 | 81 | 1006.0 |
| 20260831234331 | 74 | 69 | 0.0 | 1.0 | 0.00 | 0.00 | 0.00 | 81 | 1006.2 |
| 20260831233826 | 75 | 19 | 0.0 | 1.0 | 0.00 | 0.00 | 0.00 | 81 | 1006.2 |
| 20260831233321 | 74 | 34 | 1.0 | 1.0 | 0.00 | 0.00 | 0.00 | 81 | 1006.1 |
| 20260831232817 | 75 | 29 | 0.0 | 0.0 | 0.00 | 0.00 | 0.00 | 81 | 1006.3 |
| 20260831232313 | 75 | 11 | 0.0 | 1.0 | 0.00 | 0.00 | 0.00 | 81 | 1006.2 |
| 20260831231809 | 75 | 30 | 0.0 | 2.0 | 0.00 | 0.00 | 0.00 | 81 | 1006.5 |
| 20260831231305 | 75 | 57 | 0.0 | 0.0 | 0.00 | 0.00 | 0.00 | 81 | 1006.2 |
| 20260831230800 | 75 | 89 | 1.0 | 1.0 | 0.00 | 0.00 | 0.00 | 81 | 1006.3 |
| 20260831230255 | 75 | 358 | 1.0 | 1.0 | 0.00 | 0.00 | 0.00 | 81 | 1006.4 |
| 20260831225754 | 75 | 27 | 0.0 | 0.0 | 0.00 | 0.00 | 0.00 | 80 | 1006.4 |
| 20260831225249 | 75 | 19 | 0.0 | 0.0 | 0.00 | 0.00 | 0.00 | 80 | 1006.2 |
| 20260831224739 | 75 | 44 | 0.0 | 0.0 | 0.00 | 0.00 | 0.00 | 80 | 1006.5 |
| 20260831224234 | 75 | 40 | 0.0 | 1.0 | 0.00 | 0.00 | 0.00 | 80 | 1006.5 |
| 20260831223729 | 75 | 88 | 1.0 | 2.0 | 0.00 | 0.00 | 0.00 | 80 | 1006.4 |
| 20260831223225 | 75 | 54 | 0.0 | 1.0 | 0.00 | 0.00 | 0.00 | 80 | 1006.7 |
| 20260831222721 | 75 | 50 | 0.0 | 1.0 | 0.00 | 0.00 | 0.00 | 80 | 1006.5 |
| 20260831222217 | 75 | 59 | 0.0 | 2.0 | 0.00 | 0.00 | 0.00 | 80 | 1006.6 |
| 20260831221712 | 75 | 79 | 0.0 | 3.0 | 0.00 | 0.00 | 0.00 | 80 | 1006.5 |
| 20260831221207 | 75 | 55 | 2.0 | 3.0 | 0.00 | 0.00 | 0.00 | 80 | 1006.4 |
| 20260831220702 | 75 | 109 | 3.0 | 3.0 | 0.00 | 0.00 | 0.00 | 79 | 1006.3 |
| 20260831220157 | 75 | 100 | 1.0 | 2.0 | 0.00 | 0.00 | 0.00 | 79 | 1006.3 |
| 20260831215652 | 75 | 61 | 0.0 | 0.0 | 0.00 | 0.00 | 0.00 | 79 | 1006.4 |
| 20260831215148 | 76 | 42 | 0.0 | 0.0 | 0.00 | 0.00 | 0.00 | 79 | 1006.5 |
| 20260831214645 | 76 | 67 | 0.0 | 0.0 | 0.00 | 0.00 | 0.00 | 79 | 1006.5 |
| 20260831214142 | 76 | 77 | 0.0 | 1.0 | 0.00 | 0.00 | 0.00 | 79 | 1006.6 |
| 20260831213637 | 76 | 62 | 0.0 | 1.0 | 0.00 | 0.00 | 0.00 | 79 | 1006.4 |
| 20260831213132 | 76 | 47 | 0.0 | 0.0 | 0.00 | 0.00 | 0.00 | 79 | 1006.6 |
| 20260831212629 | 76 | 41 | 0.0 | 0.0 | 0.00 | 0.00 | 0.00 | 78 | 1006.5 |
| 20260831212125 | 76 | 29 | 0.0 | 1.0 | 0.00 | 0.00 | 0.00 | 78 | 1006.5 |
| 20260831211623 | 76 | 27 | 0.0 | 0.0 | 0.00 | 0.00 | 0.00 | 78 | 1006.6 |
| 20260831211118 | 76 | 336 | 1.0 | 1.0 | 0.00 | 0.00 | 0.00 | 78 | 1006.6 |
| 20260831210613 | 76 | 47 | 1.0 | 2.0 | 0.00 | 0.00 | 0.00 | 78 | 1006.8 |
| 20260831210109 | 76 | 56 | 0.0 | 0.0 | 0.00 | 0.00 | 0.00 | 78 | 1006.8 |
| 20260831205608 | 77 | 38 | 0.0 | 1.0 | 0.00 | 0.00 | 0.00 | 77 | 1006.8 |
| 20260831205105 | 77 | 24 | 1.0 | 1.0 | 0.00 | 0.00 | 0.00 | 77 | 1006.5 |
| 20260831204559 | 77 | 89 | 2.0 | 2.0 | 0.00 | 0.00 | 0.00 | 77 | 1006.8 |